Find SARAL

NORAD ID: 39086 Int'l Des: 2013-009 Owner: ISRO/CNES Country: IN operational
LEOCIRCULARRETROGRADESSO

現在のビュー

3D地球を読み込み中...

SARALについて

説明を読み込み中...

次回通過

Passes for default location (London). Set your location on the main map for personalized predictions.

高度履歴

Loading altitude history...

軌道要素

1 39086U 13009A 26149.60558340 .00000121 00000-0 60387-4 0 9994
2 39086 98.5557 336.4084 0001787 18.7604 341.3646 14.32851010692946
Epoch: May 29, 2026 • Age: 12 hours

現在のステータス

高度 793.2 km
速度 7.46 km/s
衛星直下点 68.33°N, 28.3°E
打ち上げ日 Feb 25, 2013
運用期間 13.2 years
タイプ other

技術仕様

分類 Payload
質量 409.00 kg
乾燥質量 409.00 kg
総質量 409.00 kg
長さ 2.70 m
直径 1.00 m
スパン 4.00 m
形状 Box + 2 pan
製造者 ISAC
バスタイプ SSB-2
フェーズステータス In Orbit
所有者/国 ISRO/CNES/IN

Most Searched